<?xml version='1.0' encoding='UTF-8'?>
<gpx xmlns="http://www.topografix.com/GPX/1/1" creator="www.balnam.be" version="1.1" xmlns:xsi="http://www.w3.org/2001/XMLSchema-instance" xsi:schemaLocation="http://www.topografix.com/GPX/1/1 http://www.topografix.com/GPX/1/1/gpx.xsd">
<trk>
<name>lhuhu100</name>
<cmt>v</cmt>
<desc>Huy Chemin n°100 </desc>
<link href="https://chemins.be/huy/chemin/100"/><trkseg>
<trkpt lat="50.529258" lon="5.221288"><time>2026-05-02T21:52:22Z</time></trkpt>
<trkpt lat="50.529854" lon="5.220989"><time>2026-05-02T22:02:22Z</time></trkpt>
<trkpt lat="50.530170" lon="5.220769"><time>2026-05-02T22:12:22Z</time></trkpt>
<trkpt lat="50.530612" lon="5.220650"><time>2026-05-02T22:22:22Z</time></trkpt>
<trkpt lat="50.531090" lon="5.221646"><time>2026-05-02T22:32:22Z</time></trkpt>
</trkseg>
</trk>
<trk>
<name>lhuhu102</name>
<cmt>s</cmt>
<desc>Huy Chemin n°102 </desc>
<link href="https://chemins.be/huy/chemin/102"/><trkseg>
<trkpt lat="50.530113" lon="5.235581"><time>2026-05-02T21:52:22Z</time></trkpt>
<trkpt lat="50.529700" lon="5.233832"><time>2026-05-02T22:02:22Z</time></trkpt>
<trkpt lat="50.529301" lon="5.231702"><time>2026-05-02T22:12:22Z</time></trkpt>
</trkseg>
</trk>
<trk>
<name>lhuhu103</name>
<cmt>v</cmt>
<desc>Huy Chemin n°103 </desc>
<link href="https://chemins.be/huy/chemin/103"/><trkseg>
<trkpt lat="50.538922" lon="5.249213"><time>2026-05-02T21:52:22Z</time></trkpt>
<trkpt lat="50.538509" lon="5.249247"><time>2026-05-02T22:02:22Z</time></trkpt>
<trkpt lat="50.537480" lon="5.249736"><time>2026-05-02T22:12:22Z</time></trkpt>
</trkseg>
</trk>
<trk>
<name>lhuhu104</name>
<cmt>v</cmt>
<desc>Huy Chemin n°104 </desc>
<link href="https://chemins.be/huy/chemin/104"/><trkseg>
<trkpt lat="50.526397" lon="5.238653"><time>2026-05-02T21:52:22Z</time></trkpt>
<trkpt lat="50.527113" lon="5.237141"><time>2026-05-02T22:02:22Z</time></trkpt>
<trkpt lat="50.526731" lon="5.236765"><time>2026-05-02T22:12:22Z</time></trkpt>
<trkpt lat="50.526952" lon="5.236386"><time>2026-05-02T22:22:22Z</time></trkpt>
</trkseg>
</trk>
<trk>
<name>lhuhu104bis</name>
<cmt>v</cmt>
<desc>Huy Chemin n°104bis </desc>
<link href="https://chemins.be/huy/chemin/104bis"/><trkseg>
<trkpt lat="50.527124" lon="5.237142"><time>2026-05-02T21:52:22Z</time></trkpt>
<trkpt lat="50.527379" lon="5.237342"><time>2026-05-02T22:02:22Z</time></trkpt>
</trkseg>
</trk>
<trk>
<name>lhuhu105</name>
<cmt>v</cmt>
<desc>Huy Chemin n°105 </desc>
<link href="https://chemins.be/huy/chemin/105"/><trkseg>
<trkpt lat="50.523899" lon="5.236976"><time>2026-05-02T21:52:22Z</time></trkpt>
<trkpt lat="50.523253" lon="5.238403"><time>2026-05-02T22:02:22Z</time></trkpt>
</trkseg>
</trk>
<trk>
<name>lhuhu106</name>
<cmt>r</cmt>
<desc>Huy Sentier n°106 Ruelle ma Grand-Mère</desc>
<link href="https://chemins.be/huy/sentier/106"/><trkseg>
<trkpt lat="50.531277" lon="5.225219"><time>2026-05-02T21:52:22Z</time></trkpt>
<trkpt lat="50.531393" lon="5.225615"><time>2026-05-02T22:02:22Z</time></trkpt>
<trkpt lat="50.531379" lon="5.225863"><time>2026-05-02T22:12:22Z</time></trkpt>
<trkpt lat="50.531513" lon="5.227733"><time>2026-05-02T22:22:22Z</time></trkpt>
</trkseg></trk>
<trk>
<name>lhuhu106</name>
<cmt>v</cmt>
<desc>Huy Sentier n°106 Ruelle ma Grand-Mère</desc>
<link href="https://chemins.be/huy/sentier/106"/><trkseg>
<trkpt lat="50.531513" lon="5.227733"><time>2026-05-02T22:22:22Z</time></trkpt>
<trkpt lat="50.531669" lon="5.229739"><time>2026-05-02T22:32:22Z</time></trkpt>
<trkpt lat="50.531095" lon="5.231886"><time>2026-05-02T22:42:22Z</time></trkpt>
</trkseg>
</trk>
<trk>
<name>lhuhu108</name>
<cmt>v</cmt>
<desc>Huy Sentier n°108 </desc>
<link href="https://chemins.be/huy/sentier/108"/><trkseg>
<trkpt lat="50.534073" lon="5.225621"><time>2026-05-02T21:52:22Z</time></trkpt>
<trkpt lat="50.533512" lon="5.226048"><time>2026-05-02T22:02:22Z</time></trkpt>
<trkpt lat="50.533469" lon="5.227049"><time>2026-05-02T22:12:22Z</time></trkpt>
</trkseg>
</trk>
<trk>
<name>lhuhu108bis</name>
<cmt>s</cmt>
<desc>Huy Sentier n°108bis </desc>
<link href="https://chemins.be/huy/sentier/108bis"/><trkseg>
<trkpt lat="50.534437" lon="5.238599"><time>2026-05-02T21:52:22Z</time></trkpt>
<trkpt lat="50.535015" lon="5.238234"><time>2026-05-02T22:02:22Z</time></trkpt>
<trkpt lat="50.536860" lon="5.238435"><time>2026-05-02T22:12:22Z</time></trkpt>
</trkseg>
</trk>
<trk>
<name>lhuhu109</name>
<cmt>r</cmt>
<desc>Huy Sentier n°109 </desc>
<link href="https://chemins.be/huy/sentier/109"/><trkseg>
<trkpt lat="50.528040" lon="5.226866"><time>2026-05-02T21:52:22Z</time></trkpt>
<trkpt lat="50.527908" lon="5.226483"><time>2026-05-02T22:02:22Z</time></trkpt>
</trkseg></trk>
<trk>
<name>lhuhu109</name>
<cmt>v</cmt>
<desc>Huy Sentier n°109 </desc>
<link href="https://chemins.be/huy/sentier/109"/><trkseg>
<trkpt lat="50.527908" lon="5.226483"><time>2026-05-02T22:02:22Z</time></trkpt>
<trkpt lat="50.527749" lon="5.226028"><time>2026-05-02T22:12:22Z</time></trkpt>
</trkseg>
</trk>
<trk>
<name>lhuhu110</name>
<cmt>s</cmt>
<desc>Huy Sentier n°110 </desc>
<link href="https://chemins.be/huy/sentier/110"/><trkseg>
<trkpt lat="50.523526" lon="5.240362"><time>2026-05-02T21:52:22Z</time></trkpt>
<trkpt lat="50.525026" lon="5.240985"><time>2026-05-02T22:02:22Z</time></trkpt>
<trkpt lat="50.526950" lon="5.242007"><time>2026-05-02T22:12:22Z</time></trkpt>
<trkpt lat="50.527054" lon="5.242206"><time>2026-05-02T22:22:22Z</time></trkpt>
</trkseg></trk>
<trk>
<name>lhuhu110</name>
<cmt>q</cmt>
<desc>Huy Sentier n°110 </desc>
<link href="https://chemins.be/huy/sentier/110"/><trkseg>
<trkpt lat="50.527054" lon="5.242206"><time>2026-05-02T22:22:22Z</time></trkpt>
<trkpt lat="50.527507" lon="5.243322"><time>2026-05-02T22:32:22Z</time></trkpt>
</trkseg></trk>
<trk>
<name>lhuhu110</name>
<cmt>s</cmt>
<desc>Huy Sentier n°110 </desc>
<link href="https://chemins.be/huy/sentier/110"/><trkseg>
<trkpt lat="50.527507" lon="5.243322"><time>2026-05-02T22:32:22Z</time></trkpt>
<trkpt lat="50.528127" lon="5.243682"><time>2026-05-02T22:42:22Z</time></trkpt>
</trkseg>
</trk>
<trk>
<name>lhuhu111</name>
<cmt>q</cmt>
<desc>Huy Sentier n°111 </desc>
<link href="https://chemins.be/huy/sentier/111"/><trkseg>
<trkpt lat="50.514977" lon="5.261387"><time>2026-05-02T21:52:22Z</time></trkpt>
<trkpt lat="50.515383" lon="5.261268"><time>2026-05-02T22:02:22Z</time></trkpt>
<trkpt lat="50.515644" lon="5.261203"><time>2026-05-02T22:12:22Z</time></trkpt>
</trkseg>
</trk>
<trk>
<name>lhuhu112</name>
<cmt>q</cmt>
<desc>Huy Sentier n°112 </desc>
<link href="https://chemins.be/huy/sentier/112"/><trkseg>
<trkpt lat="50.514390" lon="5.256677"><time>2026-05-02T21:52:22Z</time></trkpt>
<trkpt lat="50.512934" lon="5.254310"><time>2026-05-02T22:02:22Z</time></trkpt>
</trkseg>
</trk>
<trk>
<name>lhuhu113</name>
<cmt>v</cmt>
<desc>Huy Sentier n°113 Sentier du Thier de Gabelle</desc>
<link href="https://chemins.be/huy/sentier/113"/><trkseg>
<trkpt lat="50.512165" lon="5.246825"><time>2026-05-02T21:52:22Z</time></trkpt>
<trkpt lat="50.513369" lon="5.244754"><time>2026-05-02T22:02:22Z</time></trkpt>
<trkpt lat="50.513990" lon="5.245333"><time>2026-05-02T22:12:22Z</time></trkpt>
<trkpt lat="50.514245" lon="5.244995"><time>2026-05-02T22:22:22Z</time></trkpt>
<trkpt lat="50.515392" lon="5.246696"><time>2026-05-02T22:32:22Z</time></trkpt>
</trkseg>
</trk>
<trk>
<name>lhuhu114</name>
<cmt>q</cmt>
<desc>Huy Sentier n°114 </desc>
<link href="https://chemins.be/huy/sentier/114"/><trkseg>
<trkpt lat="50.513683" lon="5.251030"><time>2026-05-02T21:52:22Z</time></trkpt>
<trkpt lat="50.513311" lon="5.250757"><time>2026-05-02T22:02:22Z</time></trkpt>
<trkpt lat="50.512710" lon="5.249700"><time>2026-05-02T22:12:22Z</time></trkpt>
<trkpt lat="50.512407" lon="5.247806"><time>2026-05-02T22:22:22Z</time></trkpt>
<trkpt lat="50.512492" lon="5.247549"><time>2026-05-02T22:32:22Z</time></trkpt>
<trkpt lat="50.512379" lon="5.246787"><time>2026-05-02T22:42:22Z</time></trkpt>
<trkpt lat="50.512233" lon="5.246744"><time>2026-05-02T22:52:22Z</time></trkpt>
</trkseg>
</trk>
<trk>
<name>lhuhu115</name>
<cmt>v</cmt>
<desc>Huy Sentier n°115 Rue Notre Dame</desc>
<link href="https://chemins.be/huy/sentier/115"/><trkseg>
<trkpt lat="50.510704" lon="5.253010"><time>2026-05-02T21:52:22Z</time></trkpt>
<trkpt lat="50.510401" lon="5.252076"><time>2026-05-02T22:02:22Z</time></trkpt>
<trkpt lat="50.510162" lon="5.250902"><time>2026-05-02T22:12:22Z</time></trkpt>
<trkpt lat="50.509848" lon="5.251653"><time>2026-05-02T22:22:22Z</time></trkpt>
<trkpt lat="50.509705" lon="5.250365"><time>2026-05-02T22:32:22Z</time></trkpt>
<trkpt lat="50.509514" lon="5.249528"><time>2026-05-02T22:42:22Z</time></trkpt>
</trkseg>
</trk>
<trk>
<name>lhuhu116</name>
<cmt>v</cmt>
<desc>Huy Sentier n°116 Thier Duresse</desc>
<link href="https://chemins.be/huy/sentier/116"/><trkseg>
<trkpt lat="50.507359" lon="5.236867"><time>2026-05-02T21:52:22Z</time></trkpt>
<trkpt lat="50.507048" lon="5.237510"><time>2026-05-02T22:02:22Z</time></trkpt>
<trkpt lat="50.506639" lon="5.238052"><time>2026-05-02T22:12:22Z</time></trkpt>
<trkpt lat="50.506492" lon="5.238529"><time>2026-05-02T22:22:22Z</time></trkpt>
<trkpt lat="50.506306" lon="5.239357"><time>2026-05-02T22:32:22Z</time></trkpt>
<trkpt lat="50.506392" lon="5.239937"><time>2026-05-02T22:42:22Z</time></trkpt>
<trkpt lat="50.506594" lon="5.240476"><time>2026-05-02T22:52:22Z</time></trkpt>
<trkpt lat="50.506083" lon="5.241510"><time>2026-05-02T23:02:22Z</time></trkpt>
<trkpt lat="50.505747" lon="5.241998"><time>2026-05-02T23:12:22Z</time></trkpt>
</trkseg></trk>
<trk>
<name>lhuhu116</name>
<cmt>b</cmt>
<desc>Huy Sentier n°116 Thier Duresse</desc>
<link href="https://chemins.be/huy/sentier/116"/><trkseg>
<trkpt lat="50.505747" lon="5.241998"><time>2026-05-02T23:12:22Z</time></trkpt>
<trkpt lat="50.505763" lon="5.242294"><time>2026-05-02T23:22:22Z</time></trkpt>
<trkpt lat="50.505559" lon="5.243037"><time>2026-05-02T23:32:22Z</time></trkpt>
<trkpt lat="50.505397" lon="5.244289"><time>2026-05-02T23:42:22Z</time></trkpt>
<trkpt lat="50.505366" lon="5.244796"><time>2026-05-02T23:52:22Z</time></trkpt>
<trkpt lat="50.504263" lon="5.245650"><time>2026-05-03T00:02:22Z</time></trkpt>
<trkpt lat="50.504195" lon="5.246339"><time>2026-05-03T00:12:22Z</time></trkpt>
<trkpt lat="50.503704" lon="5.246964"><time>2026-05-03T00:22:22Z</time></trkpt>
<trkpt lat="50.503219" lon="5.246917"><time>2026-05-03T00:32:22Z</time></trkpt>
</trkseg>
</trk>
<trk>
<name>lhuhu117</name>
<cmt>v</cmt>
<desc>Huy Sentier n°117 Chemin du Sart</desc>
<link href="https://chemins.be/huy/sentier/117"/><trkseg>
<trkpt lat="50.507397" lon="5.244989"><time>2026-05-02T21:52:22Z</time></trkpt>
<trkpt lat="50.507315" lon="5.245044"><time>2026-05-02T22:02:22Z</time></trkpt>
<trkpt lat="50.507260" lon="5.245198"><time>2026-05-02T22:12:22Z</time></trkpt>
<trkpt lat="50.507323" lon="5.246369"><time>2026-05-02T22:22:22Z</time></trkpt>
<trkpt lat="50.507530" lon="5.247585"><time>2026-05-02T22:32:22Z</time></trkpt>
<trkpt lat="50.507251" lon="5.248764"><time>2026-05-02T22:42:22Z</time></trkpt>
<trkpt lat="50.506987" lon="5.249225"><time>2026-05-02T22:52:22Z</time></trkpt>
<trkpt lat="50.506489" lon="5.249751"><time>2026-05-02T23:02:22Z</time></trkpt>
<trkpt lat="50.506370" lon="5.249932"><time>2026-05-02T23:12:22Z</time></trkpt>
<trkpt lat="50.505603" lon="5.251582"><time>2026-05-02T23:22:22Z</time></trkpt>
<trkpt lat="50.504923" lon="5.252302"><time>2026-05-02T23:32:22Z</time></trkpt>
<trkpt lat="50.504877" lon="5.252442"><time>2026-05-02T23:42:22Z</time></trkpt>
<trkpt lat="50.504989" lon="5.253036"><time>2026-05-02T23:52:22Z</time></trkpt>
<trkpt lat="50.505063" lon="5.255138"><time>2026-05-03T00:02:22Z</time></trkpt>
<trkpt lat="50.505077" lon="5.255688"><time>2026-05-03T00:12:22Z</time></trkpt>
<trkpt lat="50.505057" lon="5.255956"><time>2026-05-03T00:22:22Z</time></trkpt>
<trkpt lat="50.504966" lon="5.256025"><time>2026-05-03T00:32:22Z</time></trkpt>
<trkpt lat="50.504369" lon="5.256606"><time>2026-05-03T00:42:22Z</time></trkpt>
</trkseg>
</trk>
<trk>
<name>lhuhu118</name>
<cmt>r</cmt>
<desc>Huy Sentier n°118 Rue Pré-à-la-Fontaine / Rue Malhavez</desc>
<link href="https://chemins.be/huy/sentier/118"/><trkseg>
<trkpt lat="50.505283" lon="5.237951"><time>2026-05-02T21:52:22Z</time></trkpt>
<trkpt lat="50.504062" lon="5.238136"><time>2026-05-02T22:02:22Z</time></trkpt>
<trkpt lat="50.503626" lon="5.238390"><time>2026-05-02T22:12:22Z</time></trkpt>
<trkpt lat="50.503193" lon="5.238813"><time>2026-05-02T22:22:22Z</time></trkpt>
</trkseg></trk>
<trk>
<name>lhuhu118</name>
<cmt>v</cmt>
<desc>Huy Sentier n°118 Rue Pré-à-la-Fontaine / Rue Malhavez</desc>
<link href="https://chemins.be/huy/sentier/118"/><trkseg>
<trkpt lat="50.503193" lon="5.238813"><time>2026-05-02T22:22:22Z</time></trkpt>
<trkpt lat="50.502627" lon="5.239638"><time>2026-05-02T22:32:22Z</time></trkpt>
<trkpt lat="50.502185" lon="5.240132"><time>2026-05-02T22:42:22Z</time></trkpt>
</trkseg>
</trk>
<trk>
<name>lhuhu119</name>
<cmt>v</cmt>
<desc>Huy Sentier n°119 </desc>
<link href="https://chemins.be/huy/sentier/119"/><trkseg>
<trkpt lat="50.502191" lon="5.240156"><time>2026-05-02T21:52:22Z</time></trkpt>
<trkpt lat="50.502226" lon="5.240311"><time>2026-05-02T22:02:22Z</time></trkpt>
<trkpt lat="50.502243" lon="5.240425"><time>2026-05-02T22:12:22Z</time></trkpt>
<trkpt lat="50.502313" lon="5.240665"><time>2026-05-02T22:22:22Z</time></trkpt>
<trkpt lat="50.502438" lon="5.240865"><time>2026-05-02T22:32:22Z</time></trkpt>
<trkpt lat="50.502544" lon="5.241093"><time>2026-05-02T22:42:22Z</time></trkpt>
<trkpt lat="50.502812" lon="5.241351"><time>2026-05-02T22:52:22Z</time></trkpt>
<trkpt lat="50.502901" lon="5.241438"><time>2026-05-02T23:02:22Z</time></trkpt>
<trkpt lat="50.502945" lon="5.241579"><time>2026-05-02T23:12:22Z</time></trkpt>
<trkpt lat="50.503122" lon="5.241991"><time>2026-05-02T23:22:22Z</time></trkpt>
<trkpt lat="50.503244" lon="5.242402"><time>2026-05-02T23:32:22Z</time></trkpt>
<trkpt lat="50.503252" lon="5.242600"><time>2026-05-02T23:42:22Z</time></trkpt>
<trkpt lat="50.503214" lon="5.242839"><time>2026-05-02T23:52:22Z</time></trkpt>
<trkpt lat="50.503266" lon="5.243136"><time>2026-05-03T00:02:22Z</time></trkpt>
<trkpt lat="50.503290" lon="5.243461"><time>2026-05-03T00:12:22Z</time></trkpt>
<trkpt lat="50.503252" lon="5.243728"><time>2026-05-03T00:22:22Z</time></trkpt>
<trkpt lat="50.503251" lon="5.243883"><time>2026-05-03T00:32:22Z</time></trkpt>
<trkpt lat="50.503285" lon="5.244208"><time>2026-05-03T00:42:22Z</time></trkpt>
<trkpt lat="50.503328" lon="5.244476"><time>2026-05-03T00:52:22Z</time></trkpt>
<trkpt lat="50.503343" lon="5.244787"><time>2026-05-03T01:02:22Z</time></trkpt>
<trkpt lat="50.503350" lon="5.245111"><time>2026-05-03T01:12:22Z</time></trkpt>
<trkpt lat="50.503375" lon="5.245394"><time>2026-05-03T01:22:22Z</time></trkpt>
<trkpt lat="50.503365" lon="5.245534"><time>2026-05-03T01:32:22Z</time></trkpt>
<trkpt lat="50.503292" lon="5.245688"><time>2026-05-03T01:42:22Z</time></trkpt>
<trkpt lat="50.503280" lon="5.246040"><time>2026-05-03T01:52:22Z</time></trkpt>
<trkpt lat="50.503252" lon="5.246153"><time>2026-05-03T02:02:22Z</time></trkpt>
<trkpt lat="50.503213" lon="5.246504"><time>2026-05-03T02:12:22Z</time></trkpt>
<trkpt lat="50.503230" lon="5.246631"><time>2026-05-03T02:22:22Z</time></trkpt>
<trkpt lat="50.503264" lon="5.246928"><time>2026-05-03T02:32:22Z</time></trkpt>
</trkseg></trk>
<trk>
<name>lhuhu119</name>
<cmt>d</cmt>
<desc>Huy Sentier n°119 </desc>
<link href="https://chemins.be/huy/sentier/119"/><trkseg>
<trkpt lat="50.503264" lon="5.246928"><time>2026-05-03T02:32:22Z</time></trkpt>
<trkpt lat="50.502367" lon="5.252506"><time>2026-05-03T02:42:22Z</time></trkpt>
<trkpt lat="50.502575" lon="5.253776"><time>2026-05-03T02:52:22Z</time></trkpt>
<trkpt lat="50.503044" lon="5.254147"><time>2026-05-03T03:02:22Z</time></trkpt>
<trkpt lat="50.504562" lon="5.256379"><time>2026-05-03T03:12:22Z</time></trkpt>
<trkpt lat="50.505566" lon="5.257306"><time>2026-05-03T03:22:22Z</time></trkpt>
<trkpt lat="50.507259" lon="5.257501"><time>2026-05-03T03:32:22Z</time></trkpt>
</trkseg>
</trk>
<trk>
<name>lhuhu120</name>
<cmt>v</cmt>
<desc>Huy Sentier n°120 </desc>
<link href="https://chemins.be/huy/sentier/120"/><trkseg>
<trkpt lat="50.509330" lon="5.238948"><time>2026-05-02T21:52:22Z</time></trkpt>
<trkpt lat="50.509580" lon="5.238816"><time>2026-05-02T22:02:22Z</time></trkpt>
<trkpt lat="50.509639" lon="5.238297"><time>2026-05-02T22:12:22Z</time></trkpt>
<trkpt lat="50.509978" lon="5.237592"><time>2026-05-02T22:22:22Z</time></trkpt>
<trkpt lat="50.510119" lon="5.236890"><time>2026-05-02T22:32:22Z</time></trkpt>
<trkpt lat="50.510365" lon="5.236344"><time>2026-05-02T22:42:22Z</time></trkpt>
</trkseg></trk>
<trk>
<name>lhuhu120</name>
<cmt>q</cmt>
<desc>Huy Sentier n°120 </desc>
<link href="https://chemins.be/huy/sentier/120"/><trkseg>
<trkpt lat="50.510365" lon="5.236344"><time>2026-05-02T22:42:22Z</time></trkpt>
<trkpt lat="50.510293" lon="5.233988"><time>2026-05-02T22:52:22Z</time></trkpt>
<trkpt lat="50.509426" lon="5.228446"><time>2026-05-02T23:02:22Z</time></trkpt>
</trkseg>
</trk>
<trk>
<name>lhuhu122</name>
<cmt>q</cmt>
<desc>Huy Sentier n°122 </desc>
<link href="https://chemins.be/huy/sentier/122"/><trkseg>
<trkpt lat="50.517949" lon="5.230871"><time>2026-05-02T21:52:22Z</time></trkpt>
<trkpt lat="50.517209" lon="5.231266"><time>2026-05-02T22:02:22Z</time></trkpt>
</trkseg>
</trk>
<trk>
<name>lhuhu123</name>
<cmt>r</cmt>
<desc>Huy Sentier n°123 Aux Ruelles</desc>
<link href="https://chemins.be/huy/sentier/123"/><trkseg>
<trkpt lat="50.518050" lon="5.231789"><time>2026-05-02T21:52:22Z</time></trkpt>
<trkpt lat="50.517328" lon="5.232157"><time>2026-05-02T22:02:22Z</time></trkpt>
</trkseg>
</trk>
<trk>
<name>lhuhu124</name>
<cmt>q</cmt>
<desc>Huy Chemin n°124 </desc>
<link href="https://chemins.be/huy/chemin/124"/><trkseg>
<trkpt lat="50.518281" lon="5.232287"><time>2026-05-02T21:52:22Z</time></trkpt>
<trkpt lat="50.517575" lon="5.232852"><time>2026-05-02T22:02:22Z</time></trkpt>
</trkseg>
</trk>
<trk>
<name>lhuhu127</name>
<cmt>s</cmt>
<desc>Huy Sentier n°127 </desc>
<link href="https://chemins.be/huy/sentier/127"/><trkseg>
<trkpt lat="50.518146" lon="5.231058"><time>2026-05-02T21:52:22Z</time></trkpt>
<trkpt lat="50.518842" lon="5.230464"><time>2026-05-02T22:02:22Z</time></trkpt>
<trkpt lat="50.519080" lon="5.231174"><time>2026-05-02T22:12:22Z</time></trkpt>
</trkseg>
</trk>
<trk>
<name>lhuhu128</name>
<cmt>v</cmt>
<desc>Huy Sentier n°128 </desc>
<link href="https://chemins.be/huy/sentier/128"/><trkseg>
<trkpt lat="50.531019" lon="5.220333"><time>2026-05-02T21:52:22Z</time></trkpt>
<trkpt lat="50.531253" lon="5.220238"><time>2026-05-02T22:02:22Z</time></trkpt>
<trkpt lat="50.531514" lon="5.220271"><time>2026-05-02T22:12:22Z</time></trkpt>
<trkpt lat="50.531932" lon="5.220857"><time>2026-05-02T22:22:22Z</time></trkpt>
<trkpt lat="50.532252" lon="5.221272"><time>2026-05-02T22:32:22Z</time></trkpt>
</trkseg>
</trk>
<trk>
<name>lhuhu15</name>
<cmt>r</cmt>
<desc>Huy Chemin n°15 Aux Ruelles</desc>
<link href="https://chemins.be/huy/chemin/15"/><trkseg>
<trkpt lat="50.518420" lon="5.232854"><time>2026-05-02T21:52:22Z</time></trkpt>
<trkpt lat="50.518174" lon="5.232074"><time>2026-05-02T22:02:22Z</time></trkpt>
<trkpt lat="50.518023" lon="5.231789"><time>2026-05-02T22:12:22Z</time></trkpt>
<trkpt lat="50.518143" lon="5.231439"><time>2026-05-02T22:22:22Z</time></trkpt>
<trkpt lat="50.517933" lon="5.230687"><time>2026-05-02T22:32:22Z</time></trkpt>
</trkseg></trk>
<trk>
<name>lhuhu15</name>
<cmt>q</cmt>
<desc>Huy Chemin n°15 Aux Ruelles</desc>
<link href="https://chemins.be/huy/chemin/15"/><trkseg>
<trkpt lat="50.517933" lon="5.230687"><time>2026-05-02T22:32:22Z</time></trkpt>
<trkpt lat="50.517784" lon="5.230177"><time>2026-05-02T22:42:22Z</time></trkpt>
<trkpt lat="50.517750" lon="5.229908"><time>2026-05-02T22:52:22Z</time></trkpt>
<trkpt lat="50.517690" lon="5.229456"><time>2026-05-02T23:02:22Z</time></trkpt>
<trkpt lat="50.516980" lon="5.229401"><time>2026-05-02T23:12:22Z</time></trkpt>
</trkseg>
</trk>
<trk>
<name>lhuhu16</name>
<cmt>q</cmt>
<desc>Huy Chemin n°16 Chemin de la Buissière</desc>
<link href="https://chemins.be/huy/chemin/16"/><trkseg>
<trkpt lat="50.518231" lon="5.232078"><time>2026-05-02T21:52:22Z</time></trkpt>
<trkpt lat="50.519392" lon="5.231033"><time>2026-05-02T22:02:22Z</time></trkpt>
</trkseg></trk>
<trk>
<name>lhuhu16</name>
<cmt>r</cmt>
<desc>Huy Chemin n°16 Chemin de la Buissière</desc>
<link href="https://chemins.be/huy/chemin/16"/><trkseg>
<trkpt lat="50.519392" lon="5.231033"><time>2026-05-02T22:02:22Z</time></trkpt>
<trkpt lat="50.520341" lon="5.230561"><time>2026-05-02T22:12:22Z</time></trkpt>
<trkpt lat="50.520605" lon="5.230318"><time>2026-05-02T22:22:22Z</time></trkpt>
<trkpt lat="50.521305" lon="5.227572"><time>2026-05-02T22:32:22Z</time></trkpt>
<trkpt lat="50.521358" lon="5.228544"><time>2026-05-02T22:42:22Z</time></trkpt>
<trkpt lat="50.521415" lon="5.228579"><time>2026-05-02T22:52:22Z</time></trkpt>
</trkseg></trk>
<trk>
<name>lhuhu16</name>
<cmt>v</cmt>
<desc>Huy Chemin n°16 Chemin de la Buissière</desc>
<link href="https://chemins.be/huy/chemin/16"/><trkseg>
<trkpt lat="50.521415" lon="5.228579"><time>2026-05-02T22:52:22Z</time></trkpt>
<trkpt lat="50.521497" lon="5.227950"><time>2026-05-02T23:02:22Z</time></trkpt>
<trkpt lat="50.521658" lon="5.227803"><time>2026-05-02T23:12:22Z</time></trkpt>
<trkpt lat="50.521408" lon="5.229327"><time>2026-05-02T23:22:22Z</time></trkpt>
</trkseg>
</trk>
<trk>
<name>lhuhu17</name>
<cmt>r</cmt>
<desc>Huy Chemin n°17 Chemin de la Cave</desc>
<link href="https://chemins.be/huy/chemin/17"/><trkseg>
<trkpt lat="50.511259" lon="5.227393"><time>2026-05-02T21:52:22Z</time></trkpt>
<trkpt lat="50.511983" lon="5.227956"><time>2026-05-02T22:02:22Z</time></trkpt>
<trkpt lat="50.512613" lon="5.229054"><time>2026-05-02T22:12:22Z</time></trkpt>
</trkseg></trk>
<trk>
<name>lhuhu17</name>
<cmt>v</cmt>
<desc>Huy Chemin n°17 Chemin de la Cave</desc>
<link href="https://chemins.be/huy/chemin/17"/><trkseg>
<trkpt lat="50.512613" lon="5.229054"><time>2026-05-02T22:12:22Z</time></trkpt>
<trkpt lat="50.512583" lon="5.229476"><time>2026-05-02T22:22:22Z</time></trkpt>
<trkpt lat="50.512768" lon="5.230029"><time>2026-05-02T22:32:22Z</time></trkpt>
<trkpt lat="50.512811" lon="5.230584"><time>2026-05-02T22:42:22Z</time></trkpt>
<trkpt lat="50.512863" lon="5.231737"><time>2026-05-02T22:52:22Z</time></trkpt>
<trkpt lat="50.513336" lon="5.232282"><time>2026-05-02T23:02:22Z</time></trkpt>
<trkpt lat="50.513474" lon="5.233017"><time>2026-05-02T23:12:22Z</time></trkpt>
<trkpt lat="50.513713" lon="5.233501"><time>2026-05-02T23:22:22Z</time></trkpt>
<trkpt lat="50.513767" lon="5.233488"><time>2026-05-02T23:32:22Z</time></trkpt>
</trkseg>
</trk>
<trk>
<name>lhuhu19</name>
<cmt>r</cmt>
<desc>Huy Chemin n°19 Rue sur Meuse</desc>
<link href="https://chemins.be/huy/chemin/19"/><trkseg>
<trkpt lat="50.522086" lon="5.235398"><time>2026-05-02T21:52:22Z</time></trkpt>
<trkpt lat="50.521466" lon="5.236670"><time>2026-05-02T22:02:22Z</time></trkpt>
<trkpt lat="50.521254" lon="5.237319"><time>2026-05-02T22:12:22Z</time></trkpt>
</trkseg>
</trk>
<trk>
<name>lhuhu20</name>
<cmt>r</cmt>
<desc>Huy Chemin n°20 Rue de la Couronne</desc>
<link href="https://chemins.be/huy/chemin/20"/><trkseg>
<trkpt lat="50.521772" lon="5.235077"><time>2026-05-02T21:52:22Z</time></trkpt>
<trkpt lat="50.521244" lon="5.236155"><time>2026-05-02T22:02:22Z</time></trkpt>
<trkpt lat="50.520916" lon="5.236911"><time>2026-05-02T22:12:22Z</time></trkpt>
</trkseg>
</trk>
<trk>
<name>lhuhu23</name>
<cmt>v</cmt>
<desc>Huy Chemin n°23 Chemin de Morts Champs</desc>
<link href="https://chemins.be/huy/chemin/23"/><trkseg>
<trkpt lat="50.532169" lon="5.220353"><time>2026-05-02T21:52:22Z</time></trkpt>
<trkpt lat="50.532289" lon="5.221174"><time>2026-05-02T22:02:22Z</time></trkpt>
<trkpt lat="50.532410" lon="5.221811"><time>2026-05-02T22:12:22Z</time></trkpt>
<trkpt lat="50.531935" lon="5.222930"><time>2026-05-02T22:22:22Z</time></trkpt>
<trkpt lat="50.531774" lon="5.223546"><time>2026-05-02T22:32:22Z</time></trkpt>
<trkpt lat="50.531685" lon="5.224232"><time>2026-05-02T22:42:22Z</time></trkpt>
<trkpt lat="50.531619" lon="5.224546"><time>2026-05-02T22:52:22Z</time></trkpt>
</trkseg></trk>
<trk>
<name>lhuhu23</name>
<cmt>r</cmt>
<desc>Huy Chemin n°23 Chemin de Morts Champs</desc>
<link href="https://chemins.be/huy/chemin/23"/><trkseg>
<trkpt lat="50.531619" lon="5.224546"><time>2026-05-02T22:52:22Z</time></trkpt>
<trkpt lat="50.531544" lon="5.224688"><time>2026-05-02T23:02:22Z</time></trkpt>
<trkpt lat="50.531537" lon="5.224916"><time>2026-05-02T23:12:22Z</time></trkpt>
</trkseg></trk>
<trk>
<name>lhuhu23</name>
<cmt>q</cmt>
<desc>Huy Chemin n°23 Chemin de Morts Champs</desc>
<link href="https://chemins.be/huy/chemin/23"/><trkseg>
<trkpt lat="50.531537" lon="5.224916"><time>2026-05-02T23:12:22Z</time></trkpt>
<trkpt lat="50.531283" lon="5.225209"><time>2026-05-02T23:22:22Z</time></trkpt>
</trkseg></trk>
<trk>
<name>lhuhu23</name>
<cmt>r</cmt>
<desc>Huy Chemin n°23 Chemin de Morts Champs</desc>
<link href="https://chemins.be/huy/chemin/23"/><trkseg>
<trkpt lat="50.531283" lon="5.225209"><time>2026-05-02T23:22:22Z</time></trkpt>
<trkpt lat="50.530422" lon="5.223055"><time>2026-05-02T23:32:22Z</time></trkpt>
</trkseg>
</trk>
<trk>
<name>lhuhu24</name>
<cmt>v</cmt>
<desc>Huy Chemin n°24 </desc>
<link href="https://chemins.be/huy/chemin/24"/><trkseg>
<trkpt lat="50.533396" lon="5.227132"><time>2026-05-02T21:52:22Z</time></trkpt>
<trkpt lat="50.534006" lon="5.227313"><time>2026-05-02T22:02:22Z</time></trkpt>
<trkpt lat="50.534539" lon="5.228225"><time>2026-05-02T22:12:22Z</time></trkpt>
<trkpt lat="50.534870" lon="5.228471"><time>2026-05-02T22:22:22Z</time></trkpt>
</trkseg>
</trk>
<trk>
<name>lhuhu3</name>
<cmt>r</cmt>
<desc>Huy Chemin n°3 Thier Falise</desc>
<link href="https://chemins.be/huy/chemin/3"/><trkseg>
<trkpt lat="50.531334" lon="5.233654"><time>2026-05-02T21:52:22Z</time></trkpt>
<trkpt lat="50.531156" lon="5.233467"><time>2026-05-02T22:02:22Z</time></trkpt>
<trkpt lat="50.530200" lon="5.232646"><time>2026-05-02T22:12:22Z</time></trkpt>
<trkpt lat="50.529755" lon="5.232003"><time>2026-05-02T22:22:22Z</time></trkpt>
<trkpt lat="50.529353" lon="5.231699"><time>2026-05-02T22:32:22Z</time></trkpt>
<trkpt lat="50.528402" lon="5.231315"><time>2026-05-02T22:42:22Z</time></trkpt>
<trkpt lat="50.528304" lon="5.231229"><time>2026-05-02T22:52:22Z</time></trkpt>
<trkpt lat="50.527996" lon="5.230405"><time>2026-05-02T23:02:22Z</time></trkpt>
<trkpt lat="50.527942" lon="5.230404"><time>2026-05-02T23:12:22Z</time></trkpt>
</trkseg>
</trk>
<trk>
<name>lhuhu30</name>
<cmt>s</cmt>
<desc>Huy Chemin n°30 </desc>
<link href="https://chemins.be/huy/chemin/30"/><trkseg>
<trkpt lat="50.527324" lon="5.244037"><time>2026-05-02T21:52:22Z</time></trkpt>
<trkpt lat="50.529234" lon="5.244047"><time>2026-05-02T22:02:22Z</time></trkpt>
<trkpt lat="50.530989" lon="5.244893"><time>2026-05-02T22:12:22Z</time></trkpt>
<trkpt lat="50.532367" lon="5.246953"><time>2026-05-02T22:22:22Z</time></trkpt>
</trkseg>
</trk>
<trk>
<name>lhuhu32</name>
<cmt>r</cmt>
<desc>Huy Chemin n°32 Les Chinisses</desc>
<link href="https://chemins.be/huy/chemin/32"/><trkseg>
<trkpt lat="50.514648" lon="5.258575"><time>2026-05-02T21:52:22Z</time></trkpt>
<trkpt lat="50.515484" lon="5.258619"><time>2026-05-02T22:02:22Z</time></trkpt>
<trkpt lat="50.515835" lon="5.258527"><time>2026-05-02T22:12:22Z</time></trkpt>
<trkpt lat="50.516198" lon="5.258139"><time>2026-05-02T22:22:22Z</time></trkpt>
</trkseg>
</trk>
<trk>
<name>lhuhu35</name>
<cmt>v</cmt>
<desc>Huy Chemin n°35 </desc>
<link href="https://chemins.be/huy/chemin/35"/><trkseg>
<trkpt lat="50.516031" lon="5.246463"><time>2026-05-02T21:52:22Z</time></trkpt>
<trkpt lat="50.516273" lon="5.246414"><time>2026-05-02T22:02:22Z</time></trkpt>
<trkpt lat="50.516560" lon="5.246607"><time>2026-05-02T22:12:22Z</time></trkpt>
</trkseg>
</trk>
<trk>
<name>lhuhu53</name>
<cmt>v</cmt>
<desc>Huy Chemin n°53 </desc>
<link href="https://chemins.be/huy/chemin/53"/><trkseg>
<trkpt lat="50.515397" lon="5.238989"><time>2026-05-02T21:52:22Z</time></trkpt>
<trkpt lat="50.515381" lon="5.239053"><time>2026-05-02T22:02:22Z</time></trkpt>
<trkpt lat="50.515433" lon="5.239303"><time>2026-05-02T22:12:22Z</time></trkpt>
<trkpt lat="50.515418" lon="5.239338"><time>2026-05-02T22:22:22Z</time></trkpt>
</trkseg>
</trk>
<trk>
<name>lhuhu78</name>
<cmt>v</cmt>
<desc>Huy Chemin n°78 Rue des Larrons</desc>
<link href="https://chemins.be/huy/chemin/78"/><trkseg>
<trkpt lat="50.516799" lon="5.245233"><time>2026-05-02T21:52:22Z</time></trkpt>
<trkpt lat="50.517305" lon="5.246173"><time>2026-05-02T22:02:22Z</time></trkpt>
<trkpt lat="50.517366" lon="5.246372"><time>2026-05-02T22:12:22Z</time></trkpt>
<trkpt lat="50.517400" lon="5.246683"><time>2026-05-02T22:22:22Z</time></trkpt>
<trkpt lat="50.517317" lon="5.246907"><time>2026-05-02T22:32:22Z</time></trkpt>
<trkpt lat="50.517190" lon="5.247074"><time>2026-05-02T22:42:22Z</time></trkpt>
<trkpt lat="50.517036" lon="5.247184"><time>2026-05-02T22:52:22Z</time></trkpt>
<trkpt lat="50.516874" lon="5.247237"><time>2026-05-02T23:02:22Z</time></trkpt>
</trkseg>
</trk>
<trk>
<name>lhuhu83</name>
<cmt>v</cmt>
<desc>Huy Chemin n°83 Ruelle Chantelière</desc>
<link href="https://chemins.be/huy/chemin/83"/><trkseg>
<trkpt lat="50.505638" lon="5.237072"><time>2026-05-02T21:52:22Z</time></trkpt>
<trkpt lat="50.505592" lon="5.237188"><time>2026-05-02T22:02:22Z</time></trkpt>
<trkpt lat="50.505665" lon="5.237330"><time>2026-05-02T22:12:22Z</time></trkpt>
<trkpt lat="50.505753" lon="5.237360"><time>2026-05-02T22:22:22Z</time></trkpt>
<trkpt lat="50.505846" lon="5.237660"><time>2026-05-02T22:32:22Z</time></trkpt>
</trkseg>
</trk>
<trk>
<name>lhuhu84</name>
<cmt>r</cmt>
<desc>Huy Chemin n°84 Rue Chantelière / Thier au Pequet</desc>
<link href="https://chemins.be/huy/chemin/84"/><trkseg>
<trkpt lat="50.508744" lon="5.240301"><time>2026-05-02T21:52:22Z</time></trkpt>
<trkpt lat="50.508334" lon="5.240716"><time>2026-05-02T22:02:22Z</time></trkpt>
<trkpt lat="50.507934" lon="5.242233"><time>2026-05-02T22:12:22Z</time></trkpt>
<trkpt lat="50.507225" lon="5.243892"><time>2026-05-02T22:22:22Z</time></trkpt>
<trkpt lat="50.507470" lon="5.244693"><time>2026-05-02T22:32:22Z</time></trkpt>
<trkpt lat="50.507830" lon="5.245444"><time>2026-05-02T22:42:22Z</time></trkpt>
<trkpt lat="50.507961" lon="5.247161"><time>2026-05-02T22:52:22Z</time></trkpt>
<trkpt lat="50.508234" lon="5.247540"><time>2026-05-02T23:02:22Z</time></trkpt>
<trkpt lat="50.508576" lon="5.248269"><time>2026-05-02T23:12:22Z</time></trkpt>
<trkpt lat="50.509446" lon="5.249345"><time>2026-05-02T23:22:22Z</time></trkpt>
</trkseg></trk>
<trk>
<name>lhuhu84</name>
<cmt>v</cmt>
<desc>Huy Chemin n°84 Rue Chantelière / Thier au Pequet</desc>
<link href="https://chemins.be/huy/chemin/84"/><trkseg>
<trkpt lat="50.509446" lon="5.249345"><time>2026-05-02T23:22:22Z</time></trkpt>
<trkpt lat="50.509518" lon="5.249534"><time>2026-05-02T23:32:22Z</time></trkpt>
</trkseg>
</trk>
<trk>
<name>lhuhu85</name>
<cmt>v</cmt>
<desc>Huy Chemin n°85 Ruelle Chantelière</desc>
<link href="https://chemins.be/huy/chemin/85"/><trkseg>
<trkpt lat="50.507948" lon="5.242207"><time>2026-05-02T21:52:22Z</time></trkpt>
<trkpt lat="50.508056" lon="5.242181"><time>2026-05-02T22:02:22Z</time></trkpt>
<trkpt lat="50.508239" lon="5.241762"><time>2026-05-02T22:12:22Z</time></trkpt>
<trkpt lat="50.508285" lon="5.241692"><time>2026-05-02T22:22:22Z</time></trkpt>
<trkpt lat="50.508303" lon="5.241608"><time>2026-05-02T22:32:22Z</time></trkpt>
<trkpt lat="50.508422" lon="5.241384"><time>2026-05-02T22:42:22Z</time></trkpt>
<trkpt lat="50.508514" lon="5.241104"><time>2026-05-02T22:52:22Z</time></trkpt>
<trkpt lat="50.508595" lon="5.241049"><time>2026-05-02T23:02:22Z</time></trkpt>
<trkpt lat="50.508801" lon="5.241152"><time>2026-05-02T23:12:22Z</time></trkpt>
<trkpt lat="50.509024" lon="5.241409"><time>2026-05-02T23:22:22Z</time></trkpt>
<trkpt lat="50.509199" lon="5.241474"><time>2026-05-02T23:32:22Z</time></trkpt>
</trkseg></trk>
<trk>
<name>lhuhu85</name>
<cmt>r</cmt>
<desc>Huy Chemin n°85 Ruelle Chantelière</desc>
<link href="https://chemins.be/huy/chemin/85"/><trkseg>
<trkpt lat="50.509199" lon="5.241474"><time>2026-05-02T23:32:22Z</time></trkpt>
<trkpt lat="50.510668" lon="5.241589"><time>2026-05-02T23:42:22Z</time></trkpt>
<trkpt lat="50.511177" lon="5.241460"><time>2026-05-02T23:52:22Z</time></trkpt>
<trkpt lat="50.511241" lon="5.240888"><time>2026-05-03T00:02:22Z</time></trkpt>
</trkseg>
</trk>
<trk>
<name>lhuhu86</name>
<cmt>s</cmt>
<desc>Huy Chemin n°86 </desc>
<link href="https://chemins.be/huy/chemin/86"/><trkseg>
<trkpt lat="50.511365" lon="5.240977"><time>2026-05-02T21:52:22Z</time></trkpt>
<trkpt lat="50.511496" lon="5.239390"><time>2026-05-02T22:02:22Z</time></trkpt>
</trkseg>
</trk>
<trk>
<name>lhuhu87</name>
<cmt>r</cmt>
<desc>Huy Chemin n°87 Rue Portelette</desc>
<link href="https://chemins.be/huy/chemin/87"/><trkseg>
<trkpt lat="50.513313" lon="5.240010"><time>2026-05-02T21:52:22Z</time></trkpt>
<trkpt lat="50.511699" lon="5.240024"><time>2026-05-02T22:02:22Z</time></trkpt>
</trkseg></trk>
<trk>
<name>lhuhu87</name>
<cmt>s</cmt>
<desc>Huy Chemin n°87 Rue Portelette</desc>
<link href="https://chemins.be/huy/chemin/87"/><trkseg>
<trkpt lat="50.511699" lon="5.240024"><time>2026-05-02T22:02:22Z</time></trkpt>
<trkpt lat="50.511458" lon="5.240024"><time>2026-05-02T22:12:22Z</time></trkpt>
</trkseg>
</trk>
<trk>
<name>lhuhu88</name>
<cmt>v</cmt>
<desc>Huy Chemin n°88 </desc>
<link href="https://chemins.be/huy/chemin/88"/><trkseg>
<trkpt lat="50.511619" lon="5.245360"><time>2026-05-02T21:52:22Z</time></trkpt>
<trkpt lat="50.512328" lon="5.243858"><time>2026-05-02T22:02:22Z</time></trkpt>
<trkpt lat="50.512526" lon="5.242742"><time>2026-05-02T22:12:22Z</time></trkpt>
<trkpt lat="50.512540" lon="5.241626"><time>2026-05-02T22:22:22Z</time></trkpt>
<trkpt lat="50.512451" lon="5.240768"><time>2026-05-02T22:32:22Z</time></trkpt>
</trkseg>
</trk>
<trk>
<name>lhuhu89</name>
<cmt>v</cmt>
<desc>Huy Chemin n°89 </desc>
<link href="https://chemins.be/huy/chemin/89"/><trkseg>
<trkpt lat="50.511141" lon="5.247871"><time>2026-05-02T21:52:22Z</time></trkpt>
<trkpt lat="50.510466" lon="5.248235"><time>2026-05-02T22:02:22Z</time></trkpt>
<trkpt lat="50.510718" lon="5.253010"><time>2026-05-02T22:12:22Z</time></trkpt>
</trkseg>
</trk>
<trk>
<name>lhuhu91</name>
<cmt>v</cmt>
<desc>Huy Chemin n°91 Ruelle Masite</desc>
<link href="https://chemins.be/huy/chemin/91"/><trkseg>
<trkpt lat="50.524449" lon="5.254853"><time>2026-05-02T21:52:22Z</time></trkpt>
<trkpt lat="50.524574" lon="5.255053"><time>2026-05-02T22:02:22Z</time></trkpt>
<trkpt lat="50.524727" lon="5.255027"><time>2026-05-02T22:12:22Z</time></trkpt>
<trkpt lat="50.524892" lon="5.255806"><time>2026-05-02T22:22:22Z</time></trkpt>
<trkpt lat="50.525030" lon="5.256542"><time>2026-05-02T22:32:22Z</time></trkpt>
</trkseg>
</trk>
<trk>
<name>lhuhu93</name>
<cmt>v</cmt>
<desc>Huy Chemin n°93 Ruelle Masite / Avenue Joseph Thonet</desc>
<link href="https://chemins.be/huy/chemin/93"/><trkseg>
<trkpt lat="50.526218" lon="5.255210"><time>2026-05-02T21:52:22Z</time></trkpt>
<trkpt lat="50.525940" lon="5.255499"><time>2026-05-02T22:02:22Z</time></trkpt>
<trkpt lat="50.525356" lon="5.256400"><time>2026-05-02T22:12:22Z</time></trkpt>
<trkpt lat="50.525030" lon="5.256514"><time>2026-05-02T22:22:22Z</time></trkpt>
</trkseg></trk>
<trk>
<name>lhuhu93</name>
<cmt>b</cmt>
<desc>Huy Chemin n°93 Ruelle Masite / Avenue Joseph Thonet</desc>
<link href="https://chemins.be/huy/chemin/93"/><trkseg>
<trkpt lat="50.525030" lon="5.256514"><time>2026-05-02T22:22:22Z</time></trkpt>
<trkpt lat="50.524702" lon="5.256660"><time>2026-05-02T22:32:22Z</time></trkpt>
<trkpt lat="50.524148" lon="5.256695"><time>2026-05-02T22:42:22Z</time></trkpt>
</trkseg></trk>
<trk>
<name>lhuhu93</name>
<cmt>r</cmt>
<desc>Huy Chemin n°93 Ruelle Masite / Avenue Joseph Thonet</desc>
<link href="https://chemins.be/huy/chemin/93"/><trkseg>
<trkpt lat="50.524148" lon="5.256695"><time>2026-05-02T22:42:22Z</time></trkpt>
<trkpt lat="50.522927" lon="5.256404"><time>2026-05-02T22:52:22Z</time></trkpt>
</trkseg></trk>
<trk>
<name>lhuhu93</name>
<cmt>v</cmt>
<desc>Huy Chemin n°93 Ruelle Masite / Avenue Joseph Thonet</desc>
<link href="https://chemins.be/huy/chemin/93"/><trkseg>
<trkpt lat="50.522927" lon="5.256404"><time>2026-05-02T22:52:22Z</time></trkpt>
<trkpt lat="50.522230" lon="5.256599"><time>2026-05-02T23:02:22Z</time></trkpt>
<trkpt lat="50.521526" lon="5.256180"><time>2026-05-02T23:12:22Z</time></trkpt>
<trkpt lat="50.520367" lon="5.256158"><time>2026-05-02T23:22:22Z</time></trkpt>
</trkseg>
</trk>
<trk>
<name>lhuhu96</name>
<cmt>v</cmt>
<desc>Huy Chemin n°96 </desc>
<link href="https://chemins.be/huy/chemin/96"/><trkseg>
<trkpt lat="50.527263" lon="5.223692"><time>2026-05-02T21:52:22Z</time></trkpt>
<trkpt lat="50.527809" lon="5.224613"><time>2026-05-02T22:02:22Z</time></trkpt>
<trkpt lat="50.527860" lon="5.224573"><time>2026-05-02T22:12:22Z</time></trkpt>
<trkpt lat="50.528618" lon="5.226453"><time>2026-05-02T22:22:22Z</time></trkpt>
</trkseg>
</trk>
<trk>
<name>lhuhui1</name>
<cmt>v</cmt>
<desc>Huy Sentier n°i1 </desc>
<link href="https://chemins.be/huy/sentier/i1"/><trkseg>
<trkpt lat="50.531615" lon="5.224773"><time>2026-05-02T21:52:22Z</time></trkpt>
<trkpt lat="50.532000" lon="5.225090"><time>2026-05-02T22:02:22Z</time></trkpt>
<trkpt lat="50.532185" lon="5.225559"><time>2026-05-02T22:12:22Z</time></trkpt>
</trkseg>
</trk>
<trk>
<name>lhuhui10</name>
<cmt>v</cmt>
<desc>Huy Sentier n°i10 </desc>
<link href="https://chemins.be/huy/sentier/i10"/><trkseg>
<trkpt lat="50.527215" lon="5.249150"><time>2026-05-02T21:52:22Z</time></trkpt>
<trkpt lat="50.527887" lon="5.248051"><time>2026-05-02T22:02:22Z</time></trkpt>
</trkseg>
</trk>
<trk>
<name>lhuhui11</name>
<cmt>v</cmt>
<desc>Huy Sentier n°i11 </desc>
<link href="https://chemins.be/huy/sentier/i11"/><trkseg>
<trkpt lat="50.513588" lon="5.232244"><time>2026-05-02T21:52:22Z</time></trkpt>
<trkpt lat="50.513336" lon="5.232282"><time>2026-05-02T22:02:22Z</time></trkpt>
</trkseg>
</trk>
<trk>
<name>lhuhui12</name>
<cmt>v</cmt>
<desc>Huy Sentier n°i12 </desc>
<link href="https://chemins.be/huy/sentier/i12"/><trkseg>
<trkpt lat="50.513604" lon="5.259853"><time>2026-05-02T21:52:22Z</time></trkpt>
<trkpt lat="50.513709" lon="5.260221"><time>2026-05-02T22:02:22Z</time></trkpt>
<trkpt lat="50.514483" lon="5.260109"><time>2026-05-02T22:12:22Z</time></trkpt>
<trkpt lat="50.514877" lon="5.260314"><time>2026-05-02T22:22:22Z</time></trkpt>
</trkseg>
</trk>
<trk>
<name>lhuhui13</name>
<cmt>v</cmt>
<desc>Huy Sentier n°i13 </desc>
<link href="https://chemins.be/huy/sentier/i13"/><trkseg>
<trkpt lat="50.525003" lon="5.256513"><time>2026-05-02T21:52:22Z</time></trkpt>
<trkpt lat="50.524566" lon="5.256110"><time>2026-05-02T22:02:22Z</time></trkpt>
</trkseg>
</trk>
<trk>
<name>lhuhui14</name>
<cmt>v</cmt>
<desc>Huy Sentier n°i14 </desc>
<link href="https://chemins.be/huy/sentier/i14"/><trkseg>
<trkpt lat="50.525352" lon="5.230414"><time>2026-05-02T21:52:22Z</time></trkpt>
<trkpt lat="50.525441" lon="5.230598"><time>2026-05-02T22:02:22Z</time></trkpt>
<trkpt lat="50.525520" lon="5.230826"><time>2026-05-02T22:12:22Z</time></trkpt>
<trkpt lat="50.525599" lon="5.231109"><time>2026-05-02T22:22:22Z</time></trkpt>
<trkpt lat="50.525669" lon="5.231350"><time>2026-05-02T22:32:22Z</time></trkpt>
<trkpt lat="50.525840" lon="5.231866"><time>2026-05-02T22:42:22Z</time></trkpt>
<trkpt lat="50.525906" lon="5.231895"><time>2026-05-02T22:52:22Z</time></trkpt>
<trkpt lat="50.526134" lon="5.231904"><time>2026-05-02T23:02:22Z</time></trkpt>
<trkpt lat="50.526214" lon="5.232081"><time>2026-05-02T23:12:22Z</time></trkpt>
<trkpt lat="50.526231" lon="5.232375"><time>2026-05-02T23:22:22Z</time></trkpt>
<trkpt lat="50.526263" lon="5.232503"><time>2026-05-02T23:32:22Z</time></trkpt>
<trkpt lat="50.526289" lon="5.232589"><time>2026-05-02T23:42:22Z</time></trkpt>
<trkpt lat="50.526355" lon="5.232755"><time>2026-05-02T23:52:22Z</time></trkpt>
<trkpt lat="50.526396" lon="5.232717"><time>2026-05-03T00:02:22Z</time></trkpt>
<trkpt lat="50.526445" lon="5.232836"><time>2026-05-03T00:12:22Z</time></trkpt>
<trkpt lat="50.526497" lon="5.232791"><time>2026-05-03T00:22:22Z</time></trkpt>
<trkpt lat="50.526656" lon="5.233129"><time>2026-05-03T00:32:22Z</time></trkpt>
<trkpt lat="50.526502" lon="5.233320"><time>2026-05-03T00:42:22Z</time></trkpt>
</trkseg>
</trk>
<trk>
<name>lhuhui15</name>
<cmt>v</cmt>
<desc>Huy Sentier n°i15 </desc>
<link href="https://chemins.be/huy/sentier/i15"/><trkseg>
<trkpt lat="50.518842" lon="5.240195"><time>2026-05-02T21:52:22Z</time></trkpt>
<trkpt lat="50.518742" lon="5.240277"><time>2026-05-02T22:02:22Z</time></trkpt>
<trkpt lat="50.518642" lon="5.240445"><time>2026-05-02T22:12:22Z</time></trkpt>
<trkpt lat="50.518519" lon="5.240146"><time>2026-05-02T22:22:22Z</time></trkpt>
<trkpt lat="50.518466" lon="5.239920"><time>2026-05-02T22:32:22Z</time></trkpt>
<trkpt lat="50.518728" lon="5.239798"><time>2026-05-02T22:42:22Z</time></trkpt>
</trkseg>
</trk>
<trk>
<name>lhuhui16</name>
<cmt>v</cmt>
<desc>Huy Chemin n°i16 </desc>
<link href="https://chemins.be/huy/chemin/i16"/><trkseg>
<trkpt lat="50.511744" lon="5.241164"><time>2026-05-02T21:52:22Z</time></trkpt>
<trkpt lat="50.511728" lon="5.240939"><time>2026-05-02T22:02:22Z</time></trkpt>
</trkseg></trk>
<trk>
<name>lhuhui16</name>
<cmt>r</cmt>
<desc>Huy Chemin n°i16 </desc>
<link href="https://chemins.be/huy/chemin/i16"/><trkseg>
<trkpt lat="50.511728" lon="5.240939"><time>2026-05-02T22:02:22Z</time></trkpt>
<trkpt lat="50.511708" lon="5.239651"><time>2026-05-02T22:12:22Z</time></trkpt>
</trkseg></trk>
<trk>
<name>lhuhui16</name>
<cmt>v</cmt>
<desc>Huy Chemin n°i16 </desc>
<link href="https://chemins.be/huy/chemin/i16"/><trkseg>
<trkpt lat="50.511708" lon="5.239651"><time>2026-05-02T22:12:22Z</time></trkpt>
<trkpt lat="50.511706" lon="5.239408"><time>2026-05-02T22:22:22Z</time></trkpt>
</trkseg>
</trk>
<trk>
<name>lhuhui17</name>
<cmt>r</cmt>
<desc>Huy Sentier n°i17 Chemin du Comte Bazin</desc>
<link href="https://chemins.be/huy/sentier/i17"/><trkseg>
<trkpt lat="50.517541" lon="5.235826"><time>2026-05-02T21:52:22Z</time></trkpt>
<trkpt lat="50.517192" lon="5.235796"><time>2026-05-02T22:02:22Z</time></trkpt>
<trkpt lat="50.516891" lon="5.235842"><time>2026-05-02T22:12:22Z</time></trkpt>
</trkseg></trk>
<trk>
<name>lhuhui17</name>
<cmt>v</cmt>
<desc>Huy Sentier n°i17 Chemin du Comte Bazin</desc>
<link href="https://chemins.be/huy/sentier/i17"/><trkseg>
<trkpt lat="50.516891" lon="5.235842"><time>2026-05-02T22:12:22Z</time></trkpt>
<trkpt lat="50.517175" lon="5.236048"><time>2026-05-02T22:22:22Z</time></trkpt>
<trkpt lat="50.516866" lon="5.236127"><time>2026-05-02T22:32:22Z</time></trkpt>
<trkpt lat="50.517171" lon="5.236270"><time>2026-05-02T22:42:22Z</time></trkpt>
<trkpt lat="50.516887" lon="5.236349"><time>2026-05-02T22:52:22Z</time></trkpt>
<trkpt lat="50.517146" lon="5.236535"><time>2026-05-02T23:02:22Z</time></trkpt>
<trkpt lat="50.516833" lon="5.236555"><time>2026-05-02T23:12:22Z</time></trkpt>
<trkpt lat="50.516818" lon="5.236623"><time>2026-05-02T23:22:22Z</time></trkpt>
<trkpt lat="50.516767" lon="5.236763"><time>2026-05-02T23:32:22Z</time></trkpt>
<trkpt lat="50.516661" lon="5.237096"><time>2026-05-02T23:42:22Z</time></trkpt>
<trkpt lat="50.516761" lon="5.237271"><time>2026-05-02T23:52:22Z</time></trkpt>
<trkpt lat="50.516742" lon="5.237298"><time>2026-05-03T00:02:22Z</time></trkpt>
<trkpt lat="50.516616" lon="5.237232"><time>2026-05-03T00:12:22Z</time></trkpt>
<trkpt lat="50.516502" lon="5.237150"><time>2026-05-03T00:22:22Z</time></trkpt>
<trkpt lat="50.516206" lon="5.236782"><time>2026-05-03T00:32:22Z</time></trkpt>
<trkpt lat="50.516331" lon="5.236432"><time>2026-05-03T00:42:22Z</time></trkpt>
<trkpt lat="50.516103" lon="5.236284"><time>2026-05-03T00:52:22Z</time></trkpt>
<trkpt lat="50.515958" lon="5.236575"><time>2026-05-03T01:02:22Z</time></trkpt>
<trkpt lat="50.515975" lon="5.236778"><time>2026-05-03T01:12:22Z</time></trkpt>
<trkpt lat="50.515800" lon="5.236706"><time>2026-05-03T01:22:22Z</time></trkpt>
<trkpt lat="50.515868" lon="5.236942"><time>2026-05-03T01:32:22Z</time></trkpt>
<trkpt lat="50.515672" lon="5.236903"><time>2026-05-03T01:42:22Z</time></trkpt>
<trkpt lat="50.515759" lon="5.237035"><time>2026-05-03T01:52:22Z</time></trkpt>
<trkpt lat="50.515561" lon="5.237082"><time>2026-05-03T02:02:22Z</time></trkpt>
<trkpt lat="50.515413" lon="5.237322"><time>2026-05-03T02:12:22Z</time></trkpt>
</trkseg>
</trk>
<trk>
<name>lhuhui18</name>
<cmt>q</cmt>
<desc>Huy Sentier n°i18 </desc>
<link href="https://chemins.be/huy/sentier/i18"/><trkseg>
<trkpt lat="50.506657" lon="5.238101"><time>2026-05-02T21:52:22Z</time></trkpt>
<trkpt lat="50.506257" lon="5.238115"><time>2026-05-02T22:02:22Z</time></trkpt>
<trkpt lat="50.505506" lon="5.239160"><time>2026-05-02T22:12:22Z</time></trkpt>
<trkpt lat="50.505436" lon="5.239757"><time>2026-05-02T22:22:22Z</time></trkpt>
<trkpt lat="50.505765" lon="5.241012"><time>2026-05-02T22:32:22Z</time></trkpt>
<trkpt lat="50.505784" lon="5.241509"><time>2026-05-02T22:42:22Z</time></trkpt>
<trkpt lat="50.505390" lon="5.242228"><time>2026-05-02T22:52:22Z</time></trkpt>
<trkpt lat="50.504814" lon="5.245172"><time>2026-05-02T23:02:22Z</time></trkpt>
<trkpt lat="50.505009" lon="5.248212"><time>2026-05-02T23:12:22Z</time></trkpt>
<trkpt lat="50.504469" lon="5.249741"><time>2026-05-02T23:22:22Z</time></trkpt>
</trkseg></trk>
<trk>
<name>lhuhui18</name>
<cmt>v</cmt>
<desc>Huy Sentier n°i18 </desc>
<link href="https://chemins.be/huy/sentier/i18"/><trkseg>
<trkpt lat="50.504469" lon="5.249741"><time>2026-05-02T23:22:22Z</time></trkpt>
<trkpt lat="50.503512" lon="5.248284"><time>2026-05-02T23:32:22Z</time></trkpt>
<trkpt lat="50.503512" lon="5.246953"><time>2026-05-02T23:42:22Z</time></trkpt>
</trkseg>
</trk>
<trk>
<name>lhuhui19</name>
<cmt>v</cmt>
<desc>Huy Sentier n°i19 </desc>
<link href="https://chemins.be/huy/sentier/i19"/><trkseg>
<trkpt lat="50.511191" lon="5.245051"><time>2026-05-02T21:52:22Z</time></trkpt>
<trkpt lat="50.510474" lon="5.244623"><time>2026-05-02T22:02:22Z</time></trkpt>
<trkpt lat="50.510228" lon="5.243969"><time>2026-05-02T22:12:22Z</time></trkpt>
</trkseg></trk>
<trk>
<name>lhuhui19</name>
<cmt>q</cmt>
<desc>Huy Sentier n°i19 </desc>
<link href="https://chemins.be/huy/sentier/i19"/><trkseg>
<trkpt lat="50.510228" lon="5.243969"><time>2026-05-02T22:12:22Z</time></trkpt>
<trkpt lat="50.509735" lon="5.243885"><time>2026-05-02T22:22:22Z</time></trkpt>
<trkpt lat="50.509494" lon="5.244071"><time>2026-05-02T22:32:22Z</time></trkpt>
<trkpt lat="50.509231" lon="5.244384"><time>2026-05-02T22:42:22Z</time></trkpt>
<trkpt lat="50.509267" lon="5.245072"><time>2026-05-02T22:52:22Z</time></trkpt>
<trkpt lat="50.510068" lon="5.247368"><time>2026-05-02T23:02:22Z</time></trkpt>
<trkpt lat="50.510431" lon="5.248198"><time>2026-05-02T23:12:22Z</time></trkpt>
</trkseg>
</trk>
<trk>
<name>lhuhui2</name>
<cmt>v</cmt>
<desc>Huy Sentier n°i2 </desc>
<link href="https://chemins.be/huy/sentier/i2"/><trkseg>
<trkpt lat="50.530693" lon="5.220623"><time>2026-05-02T21:52:22Z</time></trkpt>
<trkpt lat="50.530847" lon="5.220386"><time>2026-05-02T22:02:22Z</time></trkpt>
<trkpt lat="50.531010" lon="5.220290"><time>2026-05-02T22:12:22Z</time></trkpt>
</trkseg>
</trk>
<trk>
<name>lhuhui20</name>
<cmt>v</cmt>
<desc>Huy Sentier n°i20 </desc>
<link href="https://chemins.be/huy/sentier/i20"/><trkseg>
<trkpt lat="50.512009" lon="5.235136"><time>2026-05-02T21:52:22Z</time></trkpt>
<trkpt lat="50.511533" lon="5.235548"><time>2026-05-02T22:02:22Z</time></trkpt>
<trkpt lat="50.510603" lon="5.235666"><time>2026-05-02T22:12:22Z</time></trkpt>
<trkpt lat="50.510362" lon="5.236370"><time>2026-05-02T22:22:22Z</time></trkpt>
</trkseg>
</trk>
<trk>
<name>lhuhui21</name>
<cmt>v</cmt>
<desc>Huy Sentier n°i21 </desc>
<link href="https://chemins.be/huy/sentier/i21"/><trkseg>
<trkpt lat="50.514516" lon="5.236239"><time>2026-05-02T21:52:22Z</time></trkpt>
<trkpt lat="50.514070" lon="5.236596"><time>2026-05-02T22:02:22Z</time></trkpt>
<trkpt lat="50.513920" lon="5.236518"><time>2026-05-02T22:12:22Z</time></trkpt>
<trkpt lat="50.513274" lon="5.237111"><time>2026-05-02T22:22:22Z</time></trkpt>
<trkpt lat="50.513192" lon="5.237083"><time>2026-05-02T22:32:22Z</time></trkpt>
<trkpt lat="50.512856" lon="5.236689"><time>2026-05-02T22:42:22Z</time></trkpt>
<trkpt lat="50.511814" lon="5.237018"><time>2026-05-02T22:52:22Z</time></trkpt>
<trkpt lat="50.512510" lon="5.236153"><time>2026-05-02T23:02:22Z</time></trkpt>
<trkpt lat="50.511905" lon="5.236217"><time>2026-05-02T23:12:22Z</time></trkpt>
<trkpt lat="50.512246" lon="5.235531"><time>2026-05-02T23:22:22Z</time></trkpt>
<trkpt lat="50.511996" lon="5.235130"><time>2026-05-02T23:32:22Z</time></trkpt>
<trkpt lat="50.511761" lon="5.235079"><time>2026-05-02T23:42:22Z</time></trkpt>
<trkpt lat="50.511488" lon="5.234607"><time>2026-05-02T23:52:22Z</time></trkpt>
</trkseg>
</trk>
<trk>
<name>lhuhui22</name>
<cmt>v</cmt>
<desc>Huy Chemin n°i22 Rue Cloîtres</desc>
<link href="https://chemins.be/huy/chemin/i22"/><trkseg>
<trkpt lat="50.518687" lon="5.238950"><time>2026-05-02T21:52:22Z</time></trkpt>
<trkpt lat="50.518628" lon="5.238659"><time>2026-05-02T22:02:22Z</time></trkpt>
<trkpt lat="50.518619" lon="5.237852"><time>2026-05-02T22:12:22Z</time></trkpt>
<trkpt lat="50.518646" lon="5.237827"><time>2026-05-02T22:22:22Z</time></trkpt>
<trkpt lat="50.518685" lon="5.237604"><time>2026-05-02T22:32:22Z</time></trkpt>
<trkpt lat="50.518799" lon="5.237450"><time>2026-05-02T22:42:22Z</time></trkpt>
</trkseg>
</trk>
<trk>
<name>lhuhui23</name>
<cmt>v</cmt>
<desc>Huy Sentier n°i23 Thier d'Erbonne</desc>
<link href="https://chemins.be/huy/sentier/i23"/><trkseg>
<trkpt lat="50.528691" lon="5.227861"><time>2026-05-02T21:52:22Z</time></trkpt>
<trkpt lat="50.528810" lon="5.228859"><time>2026-05-02T22:02:22Z</time></trkpt>
</trkseg></trk>
<trk>
<name>lhuhui23</name>
<cmt>r</cmt>
<desc>Huy Sentier n°i23 Thier d'Erbonne</desc>
<link href="https://chemins.be/huy/sentier/i23"/><trkseg>
<trkpt lat="50.528810" lon="5.228859"><time>2026-05-02T22:02:22Z</time></trkpt>
<trkpt lat="50.529318" lon="5.231000"><time>2026-05-02T22:12:22Z</time></trkpt>
</trkseg></trk>
<trk>
<name>lhuhui23</name>
<cmt>v</cmt>
<desc>Huy Sentier n°i23 Thier d'Erbonne</desc>
<link href="https://chemins.be/huy/sentier/i23"/><trkseg>
<trkpt lat="50.529318" lon="5.231000"><time>2026-05-02T22:12:22Z</time></trkpt>
<trkpt lat="50.529278" lon="5.231026"><time>2026-05-02T22:22:22Z</time></trkpt>
<trkpt lat="50.529271" lon="5.231305"><time>2026-05-02T22:32:22Z</time></trkpt>
<trkpt lat="50.529341" lon="5.231410"><time>2026-05-02T22:42:22Z</time></trkpt>
<trkpt lat="50.529316" lon="5.231453"><time>2026-05-02T22:52:22Z</time></trkpt>
<trkpt lat="50.528815" lon="5.231292"><time>2026-05-02T23:02:22Z</time></trkpt>
<trkpt lat="50.529287" lon="5.231646"><time>2026-05-02T23:12:22Z</time></trkpt>
</trkseg>
</trk>
<trk>
<name>lhuhui24</name>
<cmt>v</cmt>
<desc>Huy Sentier n°i24 </desc>
<link href="https://chemins.be/huy/sentier/i24"/><trkseg>
<trkpt lat="50.525177" lon="5.227586"><time>2026-05-02T21:52:22Z</time></trkpt>
<trkpt lat="50.525459" lon="5.227584"><time>2026-05-02T22:02:22Z</time></trkpt>
<trkpt lat="50.525699" lon="5.227512"><time>2026-05-02T22:12:22Z</time></trkpt>
</trkseg>
</trk>
<trk>
<name>lhuhui25</name>
<cmt>v</cmt>
<desc>Huy Sentier n°i25 Rue de la Cloche</desc>
<link href="https://chemins.be/huy/sentier/i25"/><trkseg>
<trkpt lat="50.518089" lon="5.242380"><time>2026-05-02T21:52:22Z</time></trkpt>
<trkpt lat="50.517964" lon="5.242505"><time>2026-05-02T22:02:22Z</time></trkpt>
<trkpt lat="50.517878" lon="5.242473"><time>2026-05-02T22:12:22Z</time></trkpt>
</trkseg>
</trk>
<trk>
<name>lhuhui26</name>
<cmt>v</cmt>
<desc>Huy Chemin n°i26 </desc>
<link href="https://chemins.be/huy/chemin/i26"/><trkseg>
<trkpt lat="50.524966" lon="5.228174"><time>2026-05-02T21:52:22Z</time></trkpt>
<trkpt lat="50.524771" lon="5.228596"><time>2026-05-02T22:02:22Z</time></trkpt>
<trkpt lat="50.524246" lon="5.228369"><time>2026-05-02T22:12:22Z</time></trkpt>
<trkpt lat="50.523935" lon="5.228677"><time>2026-05-02T22:22:22Z</time></trkpt>
<trkpt lat="50.523862" lon="5.228602"><time>2026-05-02T22:32:22Z</time></trkpt>
<trkpt lat="50.523556" lon="5.229004"><time>2026-05-02T22:42:22Z</time></trkpt>
<trkpt lat="50.523318" lon="5.229304"><time>2026-05-02T22:52:22Z</time></trkpt>
</trkseg></trk>
<trk>
<name>lhuhui26</name>
<cmt>q</cmt>
<desc>Huy Chemin n°i26 </desc>
<link href="https://chemins.be/huy/chemin/i26"/><trkseg>
<trkpt lat="50.523318" lon="5.229304"><time>2026-05-02T22:52:22Z</time></trkpt>
<trkpt lat="50.522859" lon="5.230213"><time>2026-05-02T23:02:22Z</time></trkpt>
<trkpt lat="50.522497" lon="5.231193"><time>2026-05-02T23:12:22Z</time></trkpt>
<trkpt lat="50.522202" lon="5.231994"><time>2026-05-02T23:22:22Z</time></trkpt>
</trkseg>
</trk>
<trk>
<name>lhuhui27</name>
<cmt>v</cmt>
<desc>Huy Sentier n°i27 </desc>
<link href="https://chemins.be/huy/sentier/i27"/><trkseg>
<trkpt lat="50.529566" lon="5.245105"><time>2026-05-02T21:52:22Z</time></trkpt>
<trkpt lat="50.529728" lon="5.245321"><time>2026-05-02T22:02:22Z</time></trkpt>
</trkseg></trk>
<trk>
<name>lhuhui27</name>
<cmt>b</cmt>
<desc>Huy Sentier n°i27 </desc>
<link href="https://chemins.be/huy/sentier/i27"/><trkseg>
<trkpt lat="50.529728" lon="5.245321"><time>2026-05-02T22:02:22Z</time></trkpt>
<trkpt lat="50.529798" lon="5.245413"><time>2026-05-02T22:12:22Z</time></trkpt>
</trkseg>
</trk>
<trk>
<name>lhuhui28</name>
<cmt>v</cmt>
<desc>Huy Chemin n°i28 </desc>
<link href="https://chemins.be/huy/chemin/i28"/><trkseg>
<trkpt lat="50.529147" lon="5.245799"><time>2026-05-02T21:52:22Z</time></trkpt>
<trkpt lat="50.529391" lon="5.246160"><time>2026-05-02T22:02:22Z</time></trkpt>
<trkpt lat="50.529434" lon="5.246092"><time>2026-05-02T22:12:22Z</time></trkpt>
<trkpt lat="50.529509" lon="5.246185"><time>2026-05-02T22:22:22Z</time></trkpt>
</trkseg>
</trk>
<trk>
<name>lhuhui29</name>
<cmt>v</cmt>
<desc>Huy Sentier n°i29 </desc>
<link href="https://chemins.be/huy/sentier/i29"/><trkseg>
<trkpt lat="50.528770" lon="5.246443"><time>2026-05-02T21:52:22Z</time></trkpt>
<trkpt lat="50.529102" lon="5.246911"><time>2026-05-02T22:02:22Z</time></trkpt>
</trkseg>
</trk>
<trk>
<name>lhuhui3</name>
<cmt>v</cmt>
<desc>Huy Sentier n°i3 </desc>
<link href="https://chemins.be/huy/sentier/i3"/><trkseg>
<trkpt lat="50.531307" lon="5.221509"><time>2026-05-02T21:52:22Z</time></trkpt>
<trkpt lat="50.531510" lon="5.221935"><time>2026-05-02T22:02:22Z</time></trkpt>
<trkpt lat="50.531436" lon="5.222230"><time>2026-05-02T22:12:22Z</time></trkpt>
<trkpt lat="50.531685" lon="5.222602"><time>2026-05-02T22:22:22Z</time></trkpt>
</trkseg>
</trk>
<trk>
<name>lhuhui30</name>
<cmt>v</cmt>
<desc>Huy Sentier n°i30 </desc>
<link href="https://chemins.be/huy/sentier/i30"/><trkseg>
<trkpt lat="50.530700" lon="5.249601"><time>2026-05-02T21:52:22Z</time></trkpt>
<trkpt lat="50.530848" lon="5.249865"><time>2026-05-02T22:02:22Z</time></trkpt>
<trkpt lat="50.530955" lon="5.249805"><time>2026-05-02T22:12:22Z</time></trkpt>
<trkpt lat="50.531339" lon="5.250568"><time>2026-05-02T22:22:22Z</time></trkpt>
<trkpt lat="50.531525" lon="5.250939"><time>2026-05-02T22:32:22Z</time></trkpt>
</trkseg>
</trk>
<trk>
<name>lhuhui31</name>
<cmt>v</cmt>
<desc>Huy Sentier n°i31 </desc>
<link href="https://chemins.be/huy/sentier/i31"/><trkseg>
<trkpt lat="50.522677" lon="5.254783"><time>2026-05-02T21:52:22Z</time></trkpt>
<trkpt lat="50.522734" lon="5.255258"><time>2026-05-02T22:02:22Z</time></trkpt>
<trkpt lat="50.522666" lon="5.255287"><time>2026-05-02T22:12:22Z</time></trkpt>
<trkpt lat="50.522625" lon="5.255881"><time>2026-05-02T22:22:22Z</time></trkpt>
</trkseg>
</trk>
<trk>
<name>lhuhui32</name>
<cmt>v</cmt>
<desc>Huy Sentier n°i32 </desc>
<link href="https://chemins.be/huy/sentier/i32"/><trkseg>
<trkpt lat="50.524346" lon="5.256393"><time>2026-05-02T21:52:22Z</time></trkpt>
<trkpt lat="50.524237" lon="5.256232"><time>2026-05-02T22:02:22Z</time></trkpt>
<trkpt lat="50.524141" lon="5.255705"><time>2026-05-02T22:12:22Z</time></trkpt>
<trkpt lat="50.523850" lon="5.255713"><time>2026-05-02T22:22:22Z</time></trkpt>
<trkpt lat="50.523732" lon="5.255555"><time>2026-05-02T22:32:22Z</time></trkpt>
</trkseg>
</trk>
<trk>
<name>lhuhui33</name>
<cmt>r</cmt>
<desc>Huy Chemin n°i33 Cité Springuel</desc>
<link href="https://chemins.be/huy/chemin/i33"/><trkseg>
<trkpt lat="50.525451" lon="5.252848"><time>2026-05-02T21:52:22Z</time></trkpt>
<trkpt lat="50.526865" lon="5.250881"><time>2026-05-02T22:02:22Z</time></trkpt>
</trkseg>
</trk>
<trk>
<name>lhuhui34</name>
<cmt>v</cmt>
<desc>Huy Sentier n°i34 </desc>
<link href="https://chemins.be/huy/sentier/i34"/><trkseg>
<trkpt lat="50.526859" lon="5.248546"><time>2026-05-02T21:52:22Z</time></trkpt>
<trkpt lat="50.527391" lon="5.247629"><time>2026-05-02T22:02:22Z</time></trkpt>
</trkseg></trk>
<trk>
<name>lhuhui34</name>
<cmt>q</cmt>
<desc>Huy Sentier n°i34 </desc>
<link href="https://chemins.be/huy/sentier/i34"/><trkseg>
<trkpt lat="50.527391" lon="5.247629"><time>2026-05-02T22:02:22Z</time></trkpt>
<trkpt lat="50.527656" lon="5.247198"><time>2026-05-02T22:12:22Z</time></trkpt>
<trkpt lat="50.527688" lon="5.247248"><time>2026-05-02T22:22:22Z</time></trkpt>
</trkseg>
</trk>
<trk>
<name>lhuhui35</name>
<cmt>v</cmt>
<desc>Huy Sentier n°i35 </desc>
<link href="https://chemins.be/huy/sentier/i35"/><trkseg>
<trkpt lat="50.516098" lon="5.236291"><time>2026-05-02T21:52:22Z</time></trkpt>
<trkpt lat="50.515829" lon="5.235400"><time>2026-05-02T22:02:22Z</time></trkpt>
<trkpt lat="50.515554" lon="5.234982"><time>2026-05-02T22:12:22Z</time></trkpt>
<trkpt lat="50.515186" lon="5.233952"><time>2026-05-02T22:22:22Z</time></trkpt>
<trkpt lat="50.514656" lon="5.230533"><time>2026-05-02T22:32:22Z</time></trkpt>
<trkpt lat="50.514815" lon="5.228233"><time>2026-05-02T22:42:22Z</time></trkpt>
<trkpt lat="50.514603" lon="5.225816"><time>2026-05-02T22:52:22Z</time></trkpt>
<trkpt lat="50.514483" lon="5.225422"><time>2026-05-02T23:02:22Z</time></trkpt>
<trkpt lat="50.514101" lon="5.225025"><time>2026-05-02T23:12:22Z</time></trkpt>
</trkseg>
</trk>
<trk>
<name>lhuhui36</name>
<cmt>v</cmt>
<desc>Huy Sentier n°i36 </desc>
<link href="https://chemins.be/huy/sentier/i36"/><trkseg>
<trkpt lat="50.514799" lon="5.228276"><time>2026-05-02T21:52:22Z</time></trkpt>
<trkpt lat="50.515259" lon="5.228512"><time>2026-05-02T22:02:22Z</time></trkpt>
<trkpt lat="50.515432" lon="5.228866"><time>2026-05-02T22:12:22Z</time></trkpt>
<trkpt lat="50.515588" lon="5.226710"><time>2026-05-02T22:22:22Z</time></trkpt>
<trkpt lat="50.516049" lon="5.225118"><time>2026-05-02T22:32:22Z</time></trkpt>
</trkseg>
</trk>
<trk>
<name>lhuhui37</name>
<cmt>q</cmt>
<desc>Huy Chemin n°i37 </desc>
<link href="https://chemins.be/huy/chemin/i37"/><trkseg>
<trkpt lat="50.508418" lon="5.257941"><time>2026-05-02T21:52:22Z</time></trkpt>
<trkpt lat="50.507764" lon="5.256080"><time>2026-05-02T22:02:22Z</time></trkpt>
</trkseg>
</trk>
<trk>
<name>lhuhui38</name>
<cmt>v</cmt>
<desc>Huy Sentier n°i38 </desc>
<link href="https://chemins.be/huy/sentier/i38"/><trkseg>
<trkpt lat="50.504872" lon="5.252495"><time>2026-05-02T21:52:22Z</time></trkpt>
<trkpt lat="50.504806" lon="5.252289"><time>2026-05-02T22:02:22Z</time></trkpt>
<trkpt lat="50.504611" lon="5.252464"><time>2026-05-02T22:12:22Z</time></trkpt>
<trkpt lat="50.504062" lon="5.252566"><time>2026-05-02T22:22:22Z</time></trkpt>
<trkpt lat="50.503553" lon="5.252067"><time>2026-05-02T22:32:22Z</time></trkpt>
<trkpt lat="50.503504" lon="5.251715"><time>2026-05-02T22:42:22Z</time></trkpt>
<trkpt lat="50.504450" lon="5.249891"><time>2026-05-02T22:52:22Z</time></trkpt>
</trkseg>
</trk>
<trk>
<name>lhuhui39</name>
<cmt>v</cmt>
<desc>Huy Chemin n°i39 </desc>
<link href="https://chemins.be/huy/chemin/i39"/><trkseg>
<trkpt lat="50.510196" lon="5.243939"><time>2026-05-02T21:52:22Z</time></trkpt>
<trkpt lat="50.509910" lon="5.243452"><time>2026-05-02T22:02:22Z</time></trkpt>
<trkpt lat="50.509500" lon="5.243409"><time>2026-05-02T22:12:22Z</time></trkpt>
<trkpt lat="50.508759" lon="5.244096"><time>2026-05-02T22:22:22Z</time></trkpt>
<trkpt lat="50.509196" lon="5.243145"><time>2026-05-02T22:32:22Z</time></trkpt>
<trkpt lat="50.509723" lon="5.243059"><time>2026-05-02T22:42:22Z</time></trkpt>
<trkpt lat="50.509205" lon="5.242823"><time>2026-05-02T22:52:22Z</time></trkpt>
<trkpt lat="50.509632" lon="5.242887"><time>2026-05-02T23:02:22Z</time></trkpt>
<trkpt lat="50.509182" lon="5.242651"><time>2026-05-02T23:12:22Z</time></trkpt>
<trkpt lat="50.509658" lon="5.242634"><time>2026-05-02T23:22:22Z</time></trkpt>
<trkpt lat="50.508763" lon="5.242122"><time>2026-05-02T23:32:22Z</time></trkpt>
<trkpt lat="50.508492" lon="5.242128"><time>2026-05-02T23:42:22Z</time></trkpt>
<trkpt lat="50.508373" lon="5.242162"><time>2026-05-02T23:52:22Z</time></trkpt>
<trkpt lat="50.508339" lon="5.242080"><time>2026-05-03T00:02:22Z</time></trkpt>
<trkpt lat="50.508364" lon="5.241953"><time>2026-05-03T00:12:22Z</time></trkpt>
<trkpt lat="50.508209" lon="5.241834"><time>2026-05-03T00:22:22Z</time></trkpt>
</trkseg>
</trk>
<trk>
<name>lhuhui4</name>
<cmt>v</cmt>
<desc>Huy Sentier n°i4 </desc>
<link href="https://chemins.be/huy/sentier/i4"/><trkseg>
<trkpt lat="50.531293" lon="5.223356"><time>2026-05-02T21:52:22Z</time></trkpt>
<trkpt lat="50.531614" lon="5.223757"><time>2026-05-02T22:02:22Z</time></trkpt>
<trkpt lat="50.531386" lon="5.224190"><time>2026-05-02T22:12:22Z</time></trkpt>
</trkseg>
</trk>
<trk>
<name>lhuhui5</name>
<cmt>v</cmt>
<desc>Huy Sentier n°i5 </desc>
<link href="https://chemins.be/huy/sentier/i5"/><trkseg>
<trkpt lat="50.531898" lon="5.223014"><time>2026-05-02T21:52:22Z</time></trkpt>
<trkpt lat="50.531606" lon="5.223559"><time>2026-05-02T22:02:22Z</time></trkpt>
</trkseg>
</trk>
<trk>
<name>lhuhui6</name>
<cmt>q</cmt>
<desc>Huy Sentier n°i6 </desc>
<link href="https://chemins.be/huy/sentier/i6"/><trkseg>
<trkpt lat="50.531849" lon="5.222322"><time>2026-05-02T21:52:22Z</time></trkpt>
<trkpt lat="50.532049" lon="5.222072"><time>2026-05-02T22:02:22Z</time></trkpt>
<trkpt lat="50.532017" lon="5.222734"><time>2026-05-02T22:12:22Z</time></trkpt>
</trkseg>
</trk>
<trk>
<name>lhuhui7</name>
<cmt>v</cmt>
<desc>Huy Sentier n°i7 </desc>
<link href="https://chemins.be/huy/sentier/i7"/><trkseg>
<trkpt lat="50.534458" lon="5.229451"><time>2026-05-02T21:52:22Z</time></trkpt>
<trkpt lat="50.534572" lon="5.229820"><time>2026-05-02T22:02:22Z</time></trkpt>
<trkpt lat="50.535036" lon="5.230350"><time>2026-05-02T22:12:22Z</time></trkpt>
<trkpt lat="50.535341" lon="5.231639"><time>2026-05-02T22:22:22Z</time></trkpt>
<trkpt lat="50.535686" lon="5.233621"><time>2026-05-02T22:32:22Z</time></trkpt>
<trkpt lat="50.536713" lon="5.237773"><time>2026-05-02T22:42:22Z</time></trkpt>
<trkpt lat="50.536554" lon="5.238467"><time>2026-05-02T22:52:22Z</time></trkpt>
<trkpt lat="50.537810" lon="5.245341"><time>2026-05-02T23:02:22Z</time></trkpt>
<trkpt lat="50.538805" lon="5.249253"><time>2026-05-02T23:12:22Z</time></trkpt>
</trkseg>
</trk>
<trk>
<name>lhuhui8</name>
<cmt>q</cmt>
<desc>Huy Sentier n°i8 </desc>
<link href="https://chemins.be/huy/sentier/i8"/><trkseg>
<trkpt lat="50.527795" lon="5.224619"><time>2026-05-02T21:52:22Z</time></trkpt>
<trkpt lat="50.527522" lon="5.225192"><time>2026-05-02T22:02:22Z</time></trkpt>
<trkpt lat="50.527768" lon="5.225944"><time>2026-05-02T22:12:22Z</time></trkpt>
</trkseg>
</trk>
<trk>
<name>lhuhui9</name>
<cmt>v</cmt>
<desc>Huy Sentier n°i9 Galerie des Fouarges</desc>
<link href="https://chemins.be/huy/sentier/i9"/><trkseg>
<trkpt lat="50.518606" lon="5.240500"><time>2026-05-02T21:52:22Z</time></trkpt>
<trkpt lat="50.518693" lon="5.240897"><time>2026-05-02T22:02:22Z</time></trkpt>
</trkseg>
</trk>
<trk>
<name>lhuhuL126</name>
<cmt>t</cmt>
<desc>Huy Chemin n°L126 s</desc>
<link href="https://chemins.be/huy/chemin/L126"/><trkseg>
<trkpt lat="50.516641" lon="5.233921"><time>2026-05-02T21:52:22Z</time></trkpt>
<trkpt lat="50.513528" lon="5.237784"><time>2026-05-02T22:02:22Z</time></trkpt>
<trkpt lat="50.511156" lon="5.238840"><time>2026-05-02T22:12:22Z</time></trkpt>
<trkpt lat="50.509364" lon="5.238984"><time>2026-05-02T22:22:22Z</time></trkpt>
<trkpt lat="50.508129" lon="5.238765"><time>2026-05-02T22:32:22Z</time></trkpt>
<trkpt lat="50.506101" lon="5.237958"><time>2026-05-02T22:42:22Z</time></trkpt>
<trkpt lat="50.504678" lon="5.238200"><time>2026-05-02T22:52:22Z</time></trkpt>
<trkpt lat="50.503222" lon="5.239200"><time>2026-05-02T23:02:22Z</time></trkpt>
<trkpt lat="50.502118" lon="5.240295"><time>2026-05-02T23:12:22Z</time></trkpt>
</trkseg>
</trk>
<trk>
<name>lhuhup1</name>
<cmt>v</cmt>
<desc>Huy Chemin particulier n°p1 Chemin Saint-Joseph</desc>
<link href="https://chemins.be/huy/chemin/p1"/><trkseg>
<trkpt lat="50.517660" lon="5.247915"><time>2026-05-02T21:52:22Z</time></trkpt>
<trkpt lat="50.517550" lon="5.248195"><time>2026-05-02T22:02:22Z</time></trkpt>
<trkpt lat="50.517378" lon="5.248417"><time>2026-05-02T22:12:22Z</time></trkpt>
<trkpt lat="50.517277" lon="5.248697"><time>2026-05-02T22:22:22Z</time></trkpt>
<trkpt lat="50.517291" lon="5.249106"><time>2026-05-02T22:32:22Z</time></trkpt>
<trkpt lat="50.517421" lon="5.249743"><time>2026-05-02T22:42:22Z</time></trkpt>
<trkpt lat="50.517420" lon="5.249913"><time>2026-05-02T22:52:22Z</time></trkpt>
<trkpt lat="50.517392" lon="5.250067"><time>2026-05-02T23:02:22Z</time></trkpt>
<trkpt lat="50.517346" lon="5.250193"><time>2026-05-02T23:12:22Z</time></trkpt>
<trkpt lat="50.517265" lon="5.250262"><time>2026-05-02T23:22:22Z</time></trkpt>
<trkpt lat="50.517130" lon="5.250203"><time>2026-05-02T23:32:22Z</time></trkpt>
<trkpt lat="50.517068" lon="5.250146"><time>2026-05-02T23:42:22Z</time></trkpt>
<trkpt lat="50.516891" lon="5.249790"><time>2026-05-02T23:52:22Z</time></trkpt>
<trkpt lat="50.516748" lon="5.249590"><time>2026-05-03T00:02:22Z</time></trkpt>
<trkpt lat="50.516587" lon="5.249460"><time>2026-05-03T00:12:22Z</time></trkpt>
<trkpt lat="50.516526" lon="5.249318"><time>2026-05-03T00:22:22Z</time></trkpt>
<trkpt lat="50.515919" lon="5.248714"><time>2026-05-03T00:32:22Z</time></trkpt>
<trkpt lat="50.515650" lon="5.248540"><time>2026-05-03T00:42:22Z</time></trkpt>
<trkpt lat="50.515417" lon="5.248479"><time>2026-05-03T00:52:22Z</time></trkpt>
<trkpt lat="50.515354" lon="5.248492"><time>2026-05-03T01:02:22Z</time></trkpt>
<trkpt lat="50.515309" lon="5.248463"><time>2026-05-03T01:12:22Z</time></trkpt>
<trkpt lat="50.515165" lon="5.248460"><time>2026-05-03T01:22:22Z</time></trkpt>
<trkpt lat="50.514888" lon="5.248300"><time>2026-05-03T01:32:22Z</time></trkpt>
<trkpt lat="50.514798" lon="5.248327"><time>2026-05-03T01:42:22Z</time></trkpt>
<trkpt lat="50.514699" lon="5.248381"><time>2026-05-03T01:52:22Z</time></trkpt>
<trkpt lat="50.514635" lon="5.248521"><time>2026-05-03T02:02:22Z</time></trkpt>
<trkpt lat="50.514551" lon="5.248886"><time>2026-05-03T02:12:22Z</time></trkpt>
<trkpt lat="50.514451" lon="5.249068"><time>2026-05-03T02:22:22Z</time></trkpt>
</trkseg>
</trk>
<trk>
<name>lhuhup2</name>
<cmt>d</cmt>
<desc>Huy Chemin particulier n°p2 </desc>
<link href="https://chemins.be/huy/chemin/p2"/><trkseg>
<trkpt lat="50.512830" lon="5.231543"><time>2026-05-02T21:52:22Z</time></trkpt>
<trkpt lat="50.512498" lon="5.231987"><time>2026-05-02T22:02:22Z</time></trkpt>
<trkpt lat="50.512488" lon="5.232831"><time>2026-05-02T22:12:22Z</time></trkpt>
<trkpt lat="50.512328" lon="5.232979"><time>2026-05-02T22:22:22Z</time></trkpt>
</trkseg>
</trk>
</gpx>